Canton, GA

7:57 AM EST on December 15, 2019 (GMT -0500)
Canton

Weather History for KCNI - November, 2019

Change the Weather History Date:

Thursday, November 14, 2019

  Actual Average (KMGE) Record (KMGE)
Temperature  
Mean Temperature 38 °F -  
Max Temperature 44 °F 59 °F 77 °F (2007)
Min Temperature 32 °F 41 °F 24 °F (2014)
Degree Days  
Heating Degree Days 27    
Moisture  
Dew Point 28 °F    
Average Humidity 68    
Maximum Humidity 100    
Minimum Humidity 42    
Precipitation  
Precipitation 0.00 in - - ()
Sea Level Pressure  
Sea Level Pressure 30.29 in    
Wind  
Wind Speed 0 mph (East)    
Max Wind Speed 6 mph    
Max Gust Speed -    
Visibility 9 miles    
Events Rain    
Averages and records for this station are not official NWS values.
T = Trace of Precipitation, MM = Missing Value Source: NWS Daily Summary

Daily Weather History Graph

Daily Weather History Graph

Search for Another Location

Airport or City:

Astronomy

Nov. 14, 2019 Rise Set
Actual Time 7:09 AM EST 5:34 PM EST
Civil Twilight 6:42 AM EST 6:00 PM EST
Nautical Twilight 6:12 AM EST 6:31 PM EST
Astronomical Twilight 5:43 AM EST 7:00 PM EST
Moon 7:22 PM EST (11/14) 9:01 AM EST (11/14)
Length of Visible Light 11h 17m
Length of Day
10h 24m
Waning Gibbous, 95% of the Moon is Illuminated
Nov 14
Waning Gibbous
Nov 19
Last Quarter
Nov 26
New
Dec 4
First Quarter
Dec 12
Full

Hourly Weather History & Observations

Time (EST) Temp. Windchill Dew Point Humidity Pressure Visibility Wind Dir Wind Speed Gust Speed Precip Events Conditions
12:10 AM 32.0 °F - 21.2 °F 64% 30.33 in 10.0 mi Calm Calm - N/A   Clear
12:30 AM 32.0 °F - 21.2 °F 64% 30.33 in 10.0 mi Calm Calm - N/A   Clear
1:10 AM 33.8 °F - 21.2 °F 60% 30.33 in 10.0 mi Calm Calm - N/A   Clear
1:30 AM 32.0 °F - 21.2 °F 64% 30.32 in 10.0 mi Calm Calm - N/A   Clear
1:50 AM 32.0 °F - 21.2 °F 64% 30.31 in 10.0 mi Calm Calm - N/A   Clear
2:10 AM 32.0 °F - 21.2 °F 64% 30.32 in 10.0 mi Calm Calm - N/A   Clear
2:30 AM 32.0 °F - 21.2 °F 64% 30.32 in 10.0 mi Calm Calm - N/A   Clear
2:50 AM 32.0 °F 28.7 °F 21.2 °F 64% 30.31 in 10.0 mi East 3.5 mph - N/A   Clear
3:10 AM 32.0 °F - 21.2 °F 64% 30.31 in 10.0 mi Calm Calm - N/A   Clear
3:30 AM 32.0 °F - 21.2 °F 64% 30.29 in 10.0 mi Calm Calm - N/A   Clear
3:50 AM 32.0 °F - 21.2 °F 64% 30.31 in 10.0 mi Calm Calm - N/A   Clear
4:10 AM 32.0 °F - 21.2 °F 64% 30.30 in 10.0 mi Calm Calm - N/A   Scattered Clouds
4:30 AM 32.0 °F 28.7 °F 21.2 °F 64% 30.29 in 10.0 mi ENE 3.5 mph - N/A   Mostly Cloudy
4:50 AM 33.8 °F - 21.2 °F 60% 30.29 in 10.0 mi Calm Calm - N/A   Overcast
5:10 AM 33.8 °F - 19.4 °F 56% 30.30 in 10.0 mi Calm Calm - N/A   Overcast
5:30 AM 33.8 °F - 21.2 °F 60% 30.30 in 10.0 mi Calm Calm - N/A   Overcast
5:50 AM 33.8 °F - 19.4 °F 56% 30.32 in 10.0 mi Calm Calm - N/A   Overcast
6:10 AM 33.8 °F - 19.4 °F 56% 30.32 in 10.0 mi Calm Calm - N/A   Overcast
6:50 AM 35.6 °F - 19.4 °F 52% 30.33 in 10.0 mi Calm Calm - N/A   Overcast
7:10 AM 35.6 °F - 19.4 °F 52% 30.33 in 10.0 mi Calm Calm - N/A   Overcast
7:35 AM 35.6 °F - 19.4 °F 52% 30.33 in 10.0 mi Calm Calm - N/A   Overcast
7:50 AM 35.6 °F - 19.4 °F 52% 30.33 in 10.0 mi Calm Calm - N/A   Overcast
8:10 AM 35.6 °F - 19.4 °F 52% 30.34 in 10.0 mi Calm Calm - N/A   Overcast
8:30 AM 35.6 °F - 19.4 °F 52% 30.33 in 10.0 mi Calm Calm - N/A   Scattered Clouds
8:50 AM 37.4 °F 34.9 °F 19.4 °F 48% 30.33 in 10.0 mi East 3.5 mph - N/A   Mostly Cloudy
9:10 AM 37.4 °F 34.9 °F 19.4 °F 48% 30.33 in 10.0 mi East 3.5 mph - N/A   Mostly Cloudy
9:30 AM 41.0 °F 37.1 °F 19.4 °F 42% 30.31 in 10.0 mi East 5.8 mph - N/A   Mostly Cloudy
9:50 AM 41.0 °F - 19.4 °F 42% 30.32 in 10.0 mi Calm Calm - N/A   Scattered Clouds
10:10 AM 41.0 °F - 21.2 °F 45% 30.32 in 10.0 mi Calm Calm - N/A   Mostly Cloudy
10:30 AM 41.0 °F - 21.2 °F 45% 30.33 in 10.0 mi Calm Calm - N/A   Overcast
10:50 AM 41.0 °F - 21.2 °F 45% 30.33 in 10.0 mi Calm Calm - N/A   Overcast
11:10 AM 41.0 °F - 23.0 °F 49% 30.33 in 10.0 mi Calm Calm - N/A   Overcast
12:15 PM 41.0 °F - 23.0 °F 49% 30.31 in 10.0 mi Calm Calm - N/A   Overcast
12:30 PM 42.8 °F - 24.8 °F 49% 30.31 in 10.0 mi Calm Calm - N/A   Overcast
1:10 PM 42.8 °F - 26.6 °F 53% 30.29 in 10.0 mi Calm Calm - N/A   Overcast
1:50 PM 42.8 °F - 26.6 °F 53% 30.28 in 10.0 mi Calm Calm - N/A   Overcast
2:10 PM 42.8 °F - 28.4 °F 57% 30.28 in 10.0 mi Calm Calm - N/A   Overcast
2:30 PM 42.8 °F - 28.4 °F 57% 30.28 in 10.0 mi Calm Calm - N/A   Overcast
2:50 PM 42.8 °F - 28.4 °F 57% 30.27 in 10.0 mi Calm Calm - N/A   Overcast
3:10 PM 44.6 °F - 30.2 °F 57% 30.27 in 10.0 mi Calm Calm - N/A   Overcast
3:30 PM 44.6 °F - 30.2 °F 57% 30.26 in 10.0 mi Calm Calm - N/A   Overcast
3:50 PM 44.6 °F - 30.2 °F 57% 30.26 in 10.0 mi Calm Calm - N/A   Overcast
4:10 PM 42.8 °F - 32.0 °F 66% 30.25 in 10.0 mi Calm Calm - N/A Rain Light Rain
4:30 PM 42.8 °F - 32.0 °F 66% 30.25 in 10.0 mi Calm Calm - N/A   Light Drizzle
4:50 PM 42.8 °F - 33.8 °F 70% 30.26 in 10.0 mi Calm Calm - N/A   Drizzle
5:30 PM 42.8 °F - 33.8 °F 70% 30.26 in 10.0 mi Calm Calm - N/A Rain Light Rain
5:50 PM 41.0 °F - 35.6 °F 81% 30.26 in 10.0 mi Calm Calm - N/A Rain Light Rain
6:10 PM 41.0 °F - 37.4 °F 87% 30.25 in 7.0 mi Calm Calm - N/A   Drizzle
6:50 PM 41.0 °F - 39.2 °F 93% 30.25 in 3.0 mi Calm Calm - N/A   Overcast
7:10 PM 41.0 °F - 41.0 °F 100% 30.26 in 10.0 mi Calm Calm - N/A   Light Drizzle
7:30 PM 41.0 °F - 39.2 °F 93% 30.25 in 10.0 mi Calm Calm - N/A   Overcast
7:50 PM 41.0 °F - 39.2 °F 93% 30.25 in 5.0 mi Calm Calm - N/A   Overcast
8:10 PM 41.0 °F - 41.0 °F 100% 30.25 in 10.0 mi Calm Calm - N/A   Drizzle
8:30 PM 41.0 °F - 41.0 °F 100% 30.25 in 7.0 mi Calm Calm - N/A   Drizzle
8:50 PM 41.0 °F - 41.0 °F 100% 30.24 in 7.0 mi Calm Calm - N/A   Light Drizzle
9:10 PM 41.0 °F - 41.0 °F 100% 30.25 in 7.0 mi Calm Calm - N/A Rain Rain
9:30 PM 41.0 °F - 41.0 °F 100% 30.25 in 4.0 mi Calm Calm - N/A Rain Rain
10:10 PM 41.0 °F - 41.0 °F 100% 30.25 in 5.0 mi Calm Calm - N/A Rain Light Rain
10:30 PM 41.0 °F - 41.0 °F 100% 30.26 in 3.0 mi Calm Calm - N/A Rain Light Rain
10:50 PM 41.0 °F - 41.0 °F 100% 30.26 in 0.5 mi Calm Calm - N/A Rain Rain
11:10 PM 41.0 °F - 41.0 °F 100% 30.26 in 1.2 mi Calm Calm - N/A Rain Light Rain
11:30 PM 41.0 °F - 41.0 °F 100% 30.26 in 2.5 mi Calm Calm - N/A Rain Light Rain
11:50 PM 41.0 °F - 41.0 °F 100% 30.25 in 4.0 mi Calm Calm - N/A Rain Light Rain